Regional Weather Roundup
Issued by NWS Columbia, SC

Home | Current Version | Previous Version | Text Only | Print | Product List | Glossary On
Versions: 1 2 3 4 5 6 7 8 9 10 11 12 13 14 15 16 17 18 19 20 21 22 23 24 25 26 27 28
000
ASUS42 KCAE 260310
RWRCAE
REGIONAL WEATHER ROUNDUP
NATIONAL WEATHER SERVICE COLUMBIA SC
1100 PM EDT WED MAY 25 2016

NOTE: "FAIR" INDICATES FEW OR NO CLOUDS BELOW 12,000 FEET WITH NO
SIGNIFICANT WEATHER AND/OR OBSTRUCTIONS TO VISIBILITY.

NOT ALL STATIONS ARE QUALITY CONTROLLED BY THE NATIONAL
WEATHER SERVICE. USE DATA WITH CAUTION...ESPECIALLY
DEWPOINT OBSERVATIONS.

SCZ001>056-GAZ040-063>065-077-260400-
...UPSTATE SOUTH CAROLINA...

CITY           SKY/WX    TMP DP  RH WIND       PRES   REMARKS
ANDERSON       PTCLDY    70  61  73 CALM      30.20R
LIBERTY        PTCLDY    67  62  85 CALM      30.20S
SPARTANBURG    PTCLDY    68  61  77 CALM      30.19S
CLEMSON        PTCLDY    76  58  53 CALM      30.21R
GREENVILLE     CLEAR     76  56  49 S5        30.21R
GREENWOOD      CLEAR     70  56  61 SW3       30.22R
GREER          CLEAR     70  59  68 S6        30.19R
ROCK HILL      CLEAR     67  60  78 SW3       30.20S
CHESTER        CLEAR     70  59  68 SW3       30.20S
LAURENS        CLEAR     70  63  78 CALM      30.20R


...CENTRAL SOUTH CAROLINA...

CITY           SKY/WX    TMP DP  RH WIND       PRES   REMARKS
COLUMBIA APT   CLEAR     71  59  65 CALM      30.18R
COLUMBIA OWENS CLEAR     72  59  63 CALM      30.20R
MCENTIRE ANGB  CLEAR     66  62  86 CALM      30.19R
ORANGEBURG     CLEAR     72  62  71 CALM      30.21R
SUMTER SHAW    CLEAR     72  62  71 CALM      30.17R
NEWBERRY       CLEAR     68  61  77 S3        30.22S
AIKEN          FAIR      68  55  64 CALM      30.24S
BARNWELL       FAIR      77  64  65 CALM      30.21R
MANNING        FAIR      72  63  73 S5        30.20R
LANCASTER      CLEAR     68  64  88 CALM      30.20R
WINNSBORO      CLEAR     73  59  60 S6        30.20R


...EASTERN AND COASTAL SOUTH CAROLINA...

CITY           SKY/WX    TMP DP  RH WIND       PRES   REMARKS
MYRTLE BEACH   CLEAR     75  64  69 S9        30.23R
N MYRTLE BCH   CLEAR     74  69  85 S9        30.21R
CONWAY         FAIR      68  64  88 CALM      30.21R
MARION         FAIR      72  61  68 S9        30.20R
HARTSVILLE     FAIR      68  59  73 CALM      30.19R
FLORENCE       CLEAR     73  62  68 S7        30.20R
DARLINGTON     CLEAR     70  65  84 SW3       30.19R
CHARLESTON APT CLEAR     73  66  78 SW7       30.22R
MOUNT PLEASANT FAIR      72  68  88 S5        30.22S
WALTERBORO     CLEAR     72  63  73 SE3       30.22R
BEAUFORT       CLEAR     75  67  76 MISG      30.21R


...EASTERN GEORGIA...

CITY           SKY/WX    TMP DP  RH WIND       PRES   REMARKS
AUGUSTA BUSH F CLEAR     66  61  84 CALM      30.19R
AUGUSTA DANIEL CLEAR     79  57  46 CALM      30.20R
THOMSON        CLEAR     70  66  88 CALM      30.25R
WASHINGTON     FAIR      72  61  68 CALM      30.21R
CLAXTON        FAIR      71  64  80 CALM      30.21R
SYLVANIA       CLEAR     76  63  62 CALM      30.22R
STATESBORO     CLEAR     74  64  72 S3        30.21R
SAVANNAH       CLEAR     72  64  76 S5        30.22R


...SOUTHERN NORTH CAROLINA...

CITY           SKY/WX    TMP DP  RH WIND       PRES   REMARKS
CHARLOTTE      CLEAR     71  59  65 S5        30.19S
WADESBORO      CLEAR     69  58  67 CALM      30.18R
ROCKINGHAM     CLEAR     71  59  67 CALM      30.18R
RUTHERFORDTON  MOCLDY    70  61  73 CALM      30.21S
ASHEVILLE      CLOUDY    69  56  62 CALM      30.26R

$$




USA.gov is the U.S. government's official web portal to all federal, state and local government web resources and services.